{"data":{"norad_id":66011,"intl_designator":"2025-232G","name":"STARLINK-35256","alt_names":[],"object_type":"PAYLOAD","status":"ACTIVE","operator":null,"country":"US","launch_date":"2025-10-16","launch_site_code":"AFETR","launch_vehicle":null,"mission":null,"orbit_class":"UNKNOWN","rcs_meters":null,"size_class":null,"mass_kg":null,"dimensions":null,"purposes":["comms"],"wikipedia_slug":null,"has_3d_model":false,"image_url":null,"decayed_at":null,"tle_current":{"epoch":"2026-09-20T06:14:45.472128Z","epoch_age_seconds":123867,"freshness":"FRESH","line1":"1 66011U 25232G   26263.26024852  .00013095  00000+0  39794-3 0  9998","line2":"2 66011  53.1566 278.8413 0000868  77.7794 282.3306 15.34407241 53247","mean_motion":15.34407241,"eccentricity":8.68e-5,"inclination_deg":53.1566,"raan_deg":278.8413,"arg_perigee_deg":77.7794,"mean_anomaly_deg":282.3306,"bstar":0.00039794,"rev_number":5324,"period_min":93.847315205677,"perigee_km":462.087935449,"apogee_km":463.27550157854,"semimajor_km":6840.8187185138,"source":"CELESTRAK","updated_at":"2026-09-21T09:00:35.769317Z"}}}